User: anonymous   Login
Location: Maddington
(51.2000°N, 1.9167°W)
Time: 03:14:13
(UTC+00:00)
Language:

Cosmos 1844 - Orbit

View from above orbital plane
View from above orbital plane
View from above satellite
View from above satellite

Ground track
Ground track

The orbit data is extracted from the following two-line orbital elements,

1 17973U 87041A   20338.14046081 -.00000339  00000-0 -15189-3 0  9991
2 17973  70.8966 127.5149 0030083  23.0756 337.1708 14.14112900731767
Epoch (UTC): 03 December 2020 03:22:15
Eccentricity: 0.0030083
inclination: 70.8966°
perigee height: 823 km
apogee height: 867 km
right ascension of ascending node: 127.5149°
argument of perigee: 23.0756°
revolutions per day: 14.14112900
mean anomaly at epoch: 337.1708°
orbit number at epoch: 73176

The dashed part of the orbit path shows where the satellite is in the earth's shadow,  

DLR